Central Victoria, Mexico

11:26 AM EST on December 07, 2016 (GMT -0500)
Cozumel

Weather History for MMCZ - November, 2012

Change the Weather History Date:

Thursday, November 1, 2012

  Actual Average Record
Temperature  
Mean Temperature 68 °F -  
Max Temperature 78 °F 85 °F 89 °F (1997)
Min Temperature 59 °F 74 °F 59 °F (2012)
Cooling Degree Days 4    
Growing Degree Days 18 (Base 50)    
Moisture  
Dew Point 61 °F    
Average Humidity 77    
Maximum Humidity 100    
Minimum Humidity 54    
Precipitation  
Precipitation 0.00 in - - ()
Sea Level Pressure  
Sea Level Pressure 30.04 in    
Wind  
Wind Speed 4 mph ()    
Max Wind Speed 12 mph    
Max Gust Speed -    
Visibility 8.3 miles    
Events      
Averages and records for this station are not official NWS values.
T = Trace of Precipitation, MM = Missing Value Source: Averaged Metar Reports

Daily Weather History Graph

Daily Weather History Graph

Search for Another Location

Airport or City:

Trip Planner

Search our weather history database for the weather conditions in past years. The results will help you decide how hot, cold, wet, or windy it might be!

Date:

Astronomy

Nov. 01, 2012 Rise Set
Actual Time 5:49 AM CST 5:12 PM CST
Civil Twilight 5:27 AM CST 5:35 PM CST
Nautical Twilight 5:00 AM CST 6:01 PM CST
Astronomical Twilight 4:34 AM CST 6:27 PM CST
Moon 7:24 PM CST (11/1) 8:06 AM CST (11/1)
Length of Visible Light 12h 07m
Length of Day
11h 22m
Waning Gibbous, 92% of the Moon is Illuminated
Nov 1
Waning Gibbous
Nov 6
Last Quarter
Nov 13
New
Nov 20
First Quarter
Nov 28
Full

Hourly Weather History & Observations

Time (CST) Temp. Dew Point Humidity Pressure Visibility Wind Dir Wind Speed Gust Speed Precip Events Conditions
12:47 AM 62.6 °F 60.8 °F 94% 30.04 in 7.0 mi ENE 3.5 mph - N/A   Partly Cloudy
1:50 AM 62.6 °F 60.8 °F 94% 30.02 in 7.0 mi Calm Calm - N/A   Partly Cloudy
2:55 AM 66.2 °F 60.8 °F 83% 30.05 in 7.0 mi NE 3.5 mph - N/A   Partly Cloudy
3:52 AM 62.6 °F 60.8 °F 94% 30.01 in 7.0 mi ENE 4.6 mph - N/A   Partly Cloudy
4:49 AM 66.2 °F 60.8 °F 83% 30.02 in 7.0 mi Calm Calm - N/A   Clear
5:45 AM 59.0 °F 59.0 °F 100% 29.99 in 7.0 mi Calm Calm - N/A   Clear
6:44 AM 62.6 °F 62.6 °F 100% 30.05 in 7.0 mi Calm Calm - N/A   Partly Cloudy
7:44 AM 73.4 °F 62.6 °F 69% 30.07 in 10.0 mi ENE 5.8 mph - N/A   Partly Cloudy
9:47 AM 78.8 °F 62.6 °F 57% 30.09 in 10.0 mi ENE 6.9 mph - N/A   Scattered Clouds
10:46 AM 78.8 °F 60.8 °F 54% 30.07 in 10.0 mi ENE 11.5 mph - N/A   Scattered Clouds
11:45 AM 78.8 °F 60.8 °F 54% 30.03 in 10.0 mi East 11.5 mph - N/A   Scattered Clouds
12:44 PM 78.8 °F 60.8 °F 54% 30.03 in 10.0 mi ENE 10.4 mph - N/A   Scattered Clouds
1:49 PM 78.8 °F 60.8 °F 54% 30.01 in 10.0 mi East 11.5 mph - N/A   Partly Cloudy
2:41 PM 77.0 °F 60.8 °F 57% 30.04 in 10.0 mi ENE 8.1 mph - N/A   Partly Cloudy
3:49 PM 77.0 °F 60.8 °F 57% 30.01 in 10.0 mi ENE 9.2 mph - N/A   Clear
4:48 PM 73.4 °F 60.8 °F 65% 30.01 in 10.0 mi ENE 5.8 mph - N/A   Clear
5:43 PM 69.8 °F 60.8 °F 73% 29.99 in 8.0 mi ENE 5.8 mph - N/A   Clear
6:42 PM 69.8 °F 60.8 °F 73% 30.03 in 8.0 mi ENE 4.6 mph - N/A   Clear
7:43 PM 68.0 °F 60.8 °F 78% 30.04 in 7.0 mi ENE 3.5 mph - N/A   Clear
8:51 PM 64.4 °F 59.0 °F 83% 30.09 in 7.0 mi ESE 3.5 mph - N/A   Clear
9:47 PM 60.8 °F 59.0 °F 94% 30.06 in 7.0 mi Calm Calm - N/A   Clear
10:41 PM 59.0 °F 59.0 °F 100% 30.07 in 7.0 mi Calm Calm - N/A   Clear
11:46 PM 59.0 °F 59.0 °F 100% 30.02 in 7.0 mi Calm Calm - N/A   Clear